Humidity-temperature Sensor

Selected Measurement Type: Relative Humidity

 
Relative Humidity [%]     6 entries per hour
Showing data from 7/26/2022 (00:00:00 Z) to 7/25/2022 (00:01:00 Z)
Previous Next [ Day | 3-Days | 7-Days ]
First Last
Prev [ Day | 3-Days | 7-Days ] Next
First Last

Start Time:     :
End Time:     :     
Time (in GMT) :00 :50 :40 :30 :20 :10
Previous Next [ Day | 3-Days | 7-Days ]
First Last
Prev [ Day | 3-Days | 7-Days ] Next
First Last


123 => good data
MM => data is determined as missing
-- => data not received/configured
Back to Top Back to Top
7/26/2022 00:00 to 23:10 90.78 90.43 90.43 90.27 90.43 90.78
7/25/2022 23:00 to 22:10 91.81 92.16 91.60 90.98 90.10 88.21
7/25/2022 22:00 to 21:10 87.88 88.44 88.97 88.07 87.53 87.06
7/25/2022 21:00 to 20:10 87.68 87.88 87.96 87.94 87.57 87.35
7/25/2022 20:00 to 19:10 87.55 87.80 88.11 88.58 88.70 89.13
7/25/2022 19:00 to 18:10 89.73 90.35 90.90 91.60 91.58 91.74
7/25/2022 18:00 to 17:10 92.14 91.95 91.54 90.33 90.57 91.05
7/25/2022 17:00 to 16:10 91.60 91.87 91.89 91.17 91.25 91.05
7/25/2022 16:00 to 15:10 91.52 91.68 91.68 91.91 92.46 93.37
7/25/2022 15:00 to 14:10 94.54 95.11 95.90 96.06 95.63 95.73
7/25/2022 14:00 to 13:10 95.98 96.37 96.76 96.43 95.81 96.45
7/25/2022 13:00 to 12:10 97.15 96.86 96.53 95.63 95.32 94.03
7/25/2022 12:00 to 11:10 93.92 94.46 94.72 94.62 94.37 94.37
7/25/2022 11:00 to 10:10 94.74 94.91 94.74 94.33 94.07 93.55
7/25/2022 10:00 to 9:10 94.11 94.31 94.56 94.74 94.89 94.91
7/25/2022 09:00 to 8:10 93.61 91.93 92.26 93.16 93.64 94.05
7/25/2022 08:00 to 7:10 94.60 95.20 94.54 93.86 94.00 94.15
7/25/2022 07:00 to 6:10 93.59 93.68 94.05 94.52 94.89 94.91
7/25/2022 06:00 to 5:10 95.71 96.39 96.78 97.17 97.66 98.09
7/25/2022 05:00 to 4:10 98.57 98.75 99.20 99.27 99.37 99.18
7/25/2022 04:00 to 3:10 99.06 98.69 98.05 97.68 97.91 98.03
7/25/2022 03:00 to 2:10 98.20 98.85 98.90 98.83 98.83 98.88
7/25/2022 02:00 to 1:10 98.77 98.69 98.59 97.62 97.07 96.90
7/25/2022 01:00 to 0:10 97.31 97.05 96.84 97.52 97.50 97.54